Terug naar catalogus

ARTEMIS P2

THEMIS C

ActiefWetenschapLPO
NORAD 30582·PAYLOAD·🇺🇸 United States

Gelanceerd Feb 17, 2007 vanaf Cape Canaveral Space Force Station

Loading…

TLE

VerouderdSource: Space-Track

Epoch: Apr 5, 2010, 22:45 UTC

1 30582U 07004C   10095.94791667 -.00028999  00000-0  99999-4 0  9990
2 30582 025.5707 349.3222 6489751 071.1237 089.1304 00.02043025  5772

Volg ARTEMIS P2 in realtime met AllMySat

Download on the App Store